Regional Weather Roundup
Issued by NWS

Home | Current Version | Previous Version | Text Only | Print | Product List | Glossary Off
Versions: 1 2 3 4 5 6 7 8 9 10 11 12 13 14 15 16 17 18 19 20 21 22 23 24 25 26 27

000
ASUS45 KCYS 201610
RWRWY

WYOMING REGIONAL WEATHER ROUNDUP
NATIONAL WEATHER SERVICE CHEYENNE WY
1000 AM MDT FRI OCT 20 2017

NOTE:  "FAIR" INDICATES FEW OR NO CLOUDS BELOW 12,000 FEET
WITH NO SIGNIFICANT WEATHER AND/OR OBSTRUCTIONS TO VISIBILITY.

WYZ001-201700-
YELLOWSTONE NATIONAL PARK

CITY           SKY/WX    TMP DP  RH WIND       PRES   REMARKS
LK YELLOWSTONE   N/A     35  30  82 CALM      29.61F
W YELLOWSTONE  NOT AVBL

$$
WYZ002>013-054>058-071-098>099-201700-
NORTHERN WYOMING

CITY           SKY/WX    TMP DP  RH WIND       PRES   REMARKS
JACKSON        PTSUNNY   44  25  47 S5        29.59F
CODY           FAIR      57  27  31 CALM      29.47F
GREYBULL       FAIR      56  28  34 VRB3      29.46F
WORLAND        FAIR      62  31  31 S5        29.48F
SHERIDAN       FAIR      57  30  35 NE6       29.43F
BUFFALO        FAIR      71  26  18 S12       29.49F
GILLETTE       FAIR      66  31  27 S26G39    29.47F
HULETT         FAIR      68  32  26 S21G28    29.51F
NEWCASTLE      FAIR      64  30  27 SE10G17   29.60F

$$
WYZ014>020-022>026-101>103-201700-
CENTRAL WYOMING

CITY           SKY/WX    TMP DP  RH WIND       PRES   REMARKS
BIG PINEY      FAIR      47  30  51 S6        29.68F
PINEDALE       FAIR      48  32  53 SE7       29.69F
DUBOIS         CLOUDY    43  28  56 W9        29.60F
LANDER         PTSUNNY   64  34  32 E9        29.54F
RIVERTON       FAIR      54  29  38 SE6       29.56F
CASPER         FAIR      62  34  35 SW22G32   29.62F
DOUGLAS        FAIR      68  34  28 SW20G26   29.63F

$$
WYZ021-027>030-104>119-201700-
SOUTHERN WYOMING

CITY           SKY/WX    TMP DP  RH WIND       PRES   REMARKS
EVANSTON       FAIR      57  26  30 SW31G46   29.67S
KEMMERER       FAIR      52  28  40 S7        29.70R
FORT BRIDGER   FAIR      58  26  28 SW13G21   29.72S
ROCK SPRINGS   FAIR      55  26  32 S22G31    29.68F
DIXON          FAIR      61  32  33 S25G35    29.78F
RAWLINS        FAIR      60  33  36 SW22G30   29.74F
SARATOGA       FAIR      61  32  33 S18G24    29.77F
LARAMIE        FAIR      57  32  38 SW17      29.79F
CHEYENNE       FAIR      65  33  30 W13       29.76F
TORRINGTON     FAIR      53  39  59 SE6       29.65F
PINE BLUFFS    FAIR      59  34  38 S5        29.72F

$$




USA.gov is the U.S. government's official web portal to all federal, state and local government web resources and services.